Theta_e
365 365 363 363 362 362 361 361 360 355 356 352 353 355 353 358 361 360 359 360 360 363 362 366 368 369 364 365 368 367 366 364 363 365 363 361 361 359 357 360 359 358
365 366 365 365 364 364 363 361 362 360 358 360 355 354 358 359 359 361 359 358 359 359 362 362 367 368 363 361 365 366 365 367 365 362 362 364 363 363 359 359 359 357
365 365 365 364 362 365 365 364 362 362 358 356 358 358 355 357 357 358 359 359 358 356 359 360 363 365 362 363 366 367 364 366 363 362 361 362 362 358 358 362 361 361
365 365 363 365 364 363 366 365 364 362 361 357 356 356 357 355 356 355 358 360 360 358 358 360 362 362 363 362 367 366 364 363 359 359 361 362 361 359 359 360 359 358
364 364 362 364 365 366 365 364 362 361 359 358 356 357 357 360 358 355 356 357 363 361 359 358 360 361 363 363 365 362 359 360 358 357 358 358 361 363 361 362 361 358
364 366 366 365 367 367 363 361 360 360 359 358 357 356 356 357 357 355 355 357 358 358 356 357 359 361 362 363 365 365 363 358 356 359 357 360 364 363 362 362 361 359
364 366 366 365 366 366 365 363 363 362 359 360 362 359 358 355 356 357 357 357 357 358 357 358 362 360 360 364 365 365 363 363 362 360 361 361 364 362 363 360 361 360
363 363 364 365 364 365 363 362 362 362 363 363 359 361 361 357 356 354 355 357 357 356 359 358 359 364 363 363 364 362 363 360 360 360 364 362 362 360 362 360 359 358
362 362 363 364 364 363 362 362 362 364 364 363 360 360 363 359 355 354 354 356 359 358 358 357 360 363 364 363 362 362 362 360 360 361 361 361 360 359 357 360 358 357
360 362 363 363 362 363 363 364 363 364 365 364 363 362 359 360 359 359 358 361 360 360 359 360 361 362 364 364 364 364 363 362 362 362 361 361 360 358 357 359 357 357
359 359 359 359 357 361 363 364 365 365 366 365 365 363 362 359 359 361 361 362 362 362 362 362 363 364 365 364 364 363 363 363 362 363 362 362 362 361 360 360 356 356
358 359 357 357 359 357 358 363 364 362 362 364 363 362 364 362 363 364 364 365 366 364 364 364 364 365 365 365 364 363 363 363 363 363 362 362 361 361 363 364 365 363
356 357 356 357 358 358 360 364 363 361 361 360 362 363 363 364 364 366 366 364 365 364 363 362 362 363 364 366 364 365 364 363 362 362 362 362 363 362 362 364 365 364
356 356 357 358 359 357 358 360 362 363 362 361 362 363 363 363 363 362 364 364 364 364 364 363 362 364 367 368 368 367 365 364 363 362 362 363 363 363 362 362 364 365
357 358 359 358 359 361 360 360 360 362 362 360 361 360 359 358 359 360 361 360 361 363 364 363 361 362 364 365 367 367 366 363 362 361 361 361 362 360 360 361 363 364
359 357 357 357 357 358 358 359 360 360 361 360 359 359 359 357 357 359 356 355 359 359 362 362 362 358 362 359 361 364 365 363 362 361 360 361 360 359 359 360 361 363
357 355 355 355 356 357 358 357 358 359 359 359 358 358 356 354 355 354 355 356 360 358 353 356 356 355 358 351 351 358 362 362 359 360 361 362 361 360 360 358 358 359
354 355 354 353 355 355 355 355 355 355 355 354 355 356 356 355 354 353 354 355 354 354 354 352 352 353 346 347 350 351 357 361 359 357 359 361 361 358 357 356 356 359
354 353 353 352 353 352 353 353 352 350 351 353 354 354 355 354 354 351 349 350 351 350 348 351 353 351 341 344 346 346 349 358 356 356 358 359 359 357 356 356 359 354
353 353 352 351 351 350 351 351 352 352 353 353 354 354 353 352 354 352 348 347 346 348 351 353 352 350 340 343 342 342 344 352 356 354 357 357 358 357 356 357 356 355
353 352 352 353 353 353 352 351 352 354 354 355 354 353 352 351 352 348 346 347 348 350 349 347 351 343 338 339 338 338 341 351 355 354 354 355 356 356 357 356 357 357
351 351 352 353 353 351 348 347 348 351 352 353 352 352 351 352 352 349 348 348 347 348 349 348 353 335 337 337 335 335 340 352 354 356 355 358 357 355 356 358 359 358
354 354 353 352 349 345 345 344 344 345 347 348 347 348 349 348 349 350 350 350 350 350 347 348 351 335 329 332 331 331 342 355 357 357 356 353 352 354 357 357 356 356
357 355 353 349 347 346 344 342 342 343 343 347 346 346 345 347 350 352 355 357 355 353 353 352 351 338 326 326 326 330 346 352 353 353 355 353 350 349 351 351 352 349
356 354 352 351 348 347 345 342 342 343 345 348 348 348 346 348 349 353 354 354 353 352 349 349 345 335 324 324 325 329 341 350 349 350 348 349 347 348 352 352 353 352
354 352 352 350 349 345 342 343 345 345 343 344 345 348 347 348 350 349 347 349 350 350 346 347 345 343 336 323 325 328 335 348 348 346 345 346 348 349 350 350 349 349
Wind_Speed
9 9 9 9 9 8 8 8 8 8 8 8 8 8 8 7 7 7 7 7 7 7 7 6 6 5 5 5 6 6 5 5 4 3 4 5 6 7 7 5 6 6
11 10 8 8 8 8 8 8 8 8 8 8 8 7 6 6 7 7 8 8 8 9 8 8 7 7 8 9 8 7 7 6 6 5 5 6 7 7 8 8 7 7
11 11 10 10 9 9 9 9 8 8 8 9 9 8 8 7 8 8 7 7 8 8 9 9 8 8 10 9 7 7 6 5 5 6 7 8 6 7 8 8 7 8
11 11 10 10 10 9 8 8 8 8 8 8 9 9 8 8 8 9 8 8 8 8 8 8 9 9 9 9 8 5 5 4 5 5 7 7 7 9 9 7 7 7
11 11 11 10 10 10 9 9 10 10 10 9 9 9 9 9 9 9 9 8 8 8 8 9 9 9 8 8 9 8 9 8 8 7 7 8 10 9 8 8 8 8
10 10 11 10 10 10 10 11 11 11 11 11 10 9 9 9 9 10 10 9 9 10 10 10 9 9 9 8 9 9 8 9 12 13 14 12 9 7 7 7 8 8
10 10 11 10 10 11 10 10 10 11 11 10 9 9 9 10 10 10 10 10 10 10 10 9 9 9 8 8 8 8 8 9 8 7 8 8 7 8 8 8 8 9
12 11 11 10 11 10 11 10 11 11 10 9 9 8 8 9 10 10 10 11 11 11 10 10 9 9 8 8 9 9 10 9 9 9 9 9 8 8 9 7 7 8
9 9 9 11 11 10 11 12 12 12 11 11 10 9 9 9 10 11 11 11 11 10 10 11 10 9 9 10 9 10 10 10 9 9 9 10 10 9 9 7 8 9
10 9 8 9 9 9 11 11 11 10 9 9 10 10 11 10 11 11 11 10 10 11 11 11 11 11 10 10 11 11 10 10 10 9 9 10 10 10 10 8 8 8
10 9 9 8 11 10 10 9 10 9 8 9 8 8 9 9 9 9 10 10 10 12 12 12 12 11 11 11 10 10 11 10 10 10 10 10 10 10 9 8 11 12
10 10 11 14 12 10 13 11 10 11 9 8 9 9 9 8 9 8 9 10 11 11 12 12 11 11 11 11 11 10 10 10 10 10 11 10 10 11 10 10 9 10
12 10 8 9 8 8 10 11 10 10 9 9 9 10 9 9 9 9 8 10 11 11 12 12 12 12 11 11 11 10 10 10 10 11 11 10 10 11 11 10 10 10
10 10 10 10 10 10 12 11 10 10 11 11 9 9 9 9 10 11 10 10 10 11 11 11 11 11 11 10 10 10 10 11 11 10 10 10 10 10 10 10 10 10
8 9 9 10 10 10 11 11 11 11 11 11 10 10 7 7 10 11 11 11 11 11 11 11 12 12 11 11 10 11 10 10 10 10 10 10 10 10 10 10 9 9
9 8 8 9 9 10 11 11 10 10 10 10 10 10 9 10 9 7 6 11 12 12 11 10 8 9 8 10 10 9 10 8 8 9 9 9 9 9 9 9 10 10
7 6 6 8 9 9 10 10 10 8 7 8 8 8 9 10 10 11 10 11 10 8 8 9 7 10 10 11 8 9 9 8 8 8 8 9 9 9 8 8 9 9
7 6 7 8 8 8 7 7 7 7 7 8 9 9 9 9 11 12 11 10 8 10 9 9 11 12 8 7 6 6 6 7 7 7 8 8 8 7 7 8 7 6
6 7 7 7 6 5 5 5 6 7 8 9 8 7 6 7 8 8 6 5 7 7 9 11 11 7 6 7 6 6 6 6 7 8 7 6 6 6 7 6 2 5
6 6 6 6 5 5 5 6 6 7 8 8 7 6 7 8 9 9 8 5 5 8 11 9 8 8 12 9 7 7 7 8 11 9 8 7 7 6 6 7 9 8
5 6 6 5 5 4 3 3 3 5 6 5 5 5 5 7 8 8 8 6 6 8 6 7 8 12 11 10 10 11 10 10 10 10 8 7 7 7 7 7 5 6
5 6 5 5 4 4 3 2 1 4 7 6 6 5 6 8 8 8 7 5 6 7 8 10 6 12 10 11 10 11 10 10 10 9 9 5 2 5 6 5 5 5
5 5 6 6 6 5 4 3 4 2 3 5 7 8 8 8 8 7 6 7 9 9 8 8 7 6 5 5 6 7 8 8 7 6 2 4 6 6 5 4 4 4
4 3 6 6 5 5 5 3 2 4 2 4 7 8 9 8 6 5 6 5 6 6 6 6 5 6 6 7 7 8 9 8 6 5 6 4 3 2 3 4 5 2
4 5 6 7 6 7 6 5 5 5 4 3 5 6 6 5 4 5 5 4 4 4 5 5 5 4 6 8 10 10 8 5 5 6 6 6 5 6 7 6 4 6
4 5 5 7 8 8 6 6 6 4 4 4 6 5 4 3 3 3 5 5 4 5 6 5 6 5 6 8 8 7 3 3 2 3 4 6 5 5 5 5 6 5
Wind_Direction
211 211 212 213 217 220 219 211 215 212 220 230 222 211 219 222 216 234 243 240 228 221 218 211 207 201 211 231 224 220 232 236 239 220 243 244 247 250 260 261 272 277
210 213 215 217 218 217 216 220 214 226 221 224 238 234 223 220 218 217 227 232 229 226 225 218 210 198 212 222 211 213 221 213 227 222 227 238 246 254 255 253 254 254
207 210 214 217 220 217 219 220 223 224 230 229 226 232 237 224 228 228 236 237 243 241 222 220 220 217 221 218 208 215 216 205 231 243 237 230 232 243 248 235 231 238
210 212 215 221 226 229 225 226 224 227 233 230 230 229 226 233 236 235 229 232 242 239 242 228 220 223 218 214 198 203 232 194 214 231 237 230 226 227 230 229 233 235
216 214 217 220 222 224 224 225 227 227 231 233 234 229 229 230 234 234 229 227 227 231 227 228 219 222 216 212 211 197 213 201 215 226 243 241 235 225 229 227 232 232
216 216 216 218 217 216 218 222 224 230 230 232 234 237 234 227 232 230 229 227 221 223 225 220 217 214 215 212 213 225 220 222 225 191 204 219 221 221 227 223 223 226
206 213 219 218 217 219 223 226 230 228 229 230 229 232 232 232 229 227 225 228 237 231 227 224 222 227 218 212 217 221 231 240 246 240 224 216 212 222 222 228 225 230
201 208 213 216 219 222 225 229 230 229 226 223 226 228 229 228 230 231 225 228 231 233 232 232 220 215 228 223 221 220 226 225 229 233 227 229 210 213 221 222 224 234
224 222 218 218 222 227 230 227 226 226 218 212 213 217 218 230 232 228 231 228 228 234 233 234 232 219 215 223 225 224 224 231 235 232 230 230 227 216 207 207 227 232
228 227 227 224 226 230 235 238 239 238 231 220 212 213 220 219 227 234 236 234 230 227 229 229 225 220 220 218 220 222 223 225 232 235 235 234 239 237 212 183 226 229
220 217 223 237 242 243 238 234 236 235 233 234 229 229 230 235 233 232 233 230 225 225 227 223 220 217 217 223 224 223 222 224 227 229 233 236 239 239 244 220 217 230
219 205 205 213 213 221 239 234 230 231 232 234 230 231 233 235 239 236 229 226 229 232 230 224 221 222 219 220 223 223 225 224 226 227 230 233 233 236 230 231 230 228
215 207 209 219 212 214 232 226 224 222 219 228 229 228 226 229 232 234 237 237 234 234 232 229 227 225 224 222 222 219 219 222 226 226 229 228 232 232 233 231 231 232
233 233 227 226 214 212 227 230 226 217 212 217 217 220 221 223 227 234 235 239 242 242 239 232 226 225 222 217 212 212 215 218 223 227 226 227 230 234 237 236 234 237
227 225 226 225 224 218 219 223 224 220 220 221 213 217 218 219 228 231 233 238 239 239 241 235 228 226 226 218 212 211 212 215 219 224 225 227 228 234 235 235 236 239
231 231 228 226 223 226 228 229 226 224 226 225 226 222 219 220 226 220 217 238 237 235 238 239 240 253 234 237 226 217 209 215 220 227 229 231 235 236 237 237 236 239
238 222 224 228 229 232 233 230 231 234 234 235 232 225 222 224 221 223 222 224 226 227 236 249 263 247 235 219 200 217 221 212 220 225 231 237 238 236 239 242 241 235
231 223 220 225 225 228 230 236 239 238 244 246 244 238 232 227 226 226 225 221 220 223 222 227 227 233 234 186 171 186 223 229 222 227 230 231 238 240 237 239 247 264
219 221 220 220 226 239 247 248 245 245 239 236 235 235 226 228 228 227 224 230 223 217 237 233 235 173 191 190 171 180 206 232 253 248 238 238 239 237 246 247 230 245
212 221 221 215 214 219 235 240 243 246 240 235 235 226 228 241 241 232 228 206 244 235 219 226 239 166 206 179 175 178 197 211 230 232 228 233 241 242 234 228 227 226
207 209 210 205 203 213 210 238 269 279 270 260 253 248 239 240 240 235 221 199 210 231 214 226 237 171 182 173 183 189 192 213 224 230 230 228 231 231 233 243 216 231
200 200 199 191 174 144 158 176 278 310 303 291 271 262 261 251 242 231 221 187 200 223 217 215 186 162 187 187 187 196 189 214 222 223 221 204 204 265 235 227 235 235
193 187 168 159 158 173 181 173 145 113 336 310 287 264 243 236 232 221 210 200 202 209 208 209 162 142 141 182 188 185 192 214 219 206 215 203 212 211 200 217 227 234
183 173 136 135 157 177 197 201 153 109 104 268 246 256 252 234 222 207 202 196 194 198 195 175 168 124 161 160 163 170 207 200 185 189 181 192 174 196 198 218 224 259
153 157 169 175 185 198 204 211 202 162 147 198 252 261 264 256 234 217 187 182 173 134 143 171 128 124 161 173 166 178 200 200 187 180 183 191 190 199 206 218 193 187
159 178 180 189 189 193 189 200 188 157 155 192 219 228 241 232 236 229 194 169 170 156 170 172 157 143 150 152 158 167 231 175 157 152 186 184 207 218 213 224 231 238